F4ELU-13 Weather Reports


time (UTC)temp
F
wind
direction
speed
knots
gust
knots
rain 1hr
in
rain 24hr
in
rain mn
in
humidity
%
barometer
mb
20260503184503 58 67 0.0 1.7 0.00 0.01 0.01 75 1012.4
20260503183603 59 118 0.0 1.7 0.00 0.01 0.01 75 1012.4
20260503182703 61 172 0.0 3.5 0.00 0.01 0.01 70 1012.2
20260503181803 62 201 1.7 5.2 0.00 0.01 0.01 69 1012.2
20260503180903 62 180 2.6 7.0 0.00 0.01 0.01 68 1012.1
20260503180003 62 173 2.6 7.8 0.00 0.01 0.01 67 1012.1
20260503175403 62 165 1.7 5.2 0.00 0.01 0.01 68 1012.0
20260503174503 62 153 0.0 3.5 0.00 0.01 0.01 69 1012.0
20260503173603 62 187 0.0 5.2 0.00 0.01 0.01 69 1012.2
20260503172703 62 147 1.7 5.2 0.00 0.01 0.01 68 1012.2
20260503171803 62 145 0.0 1.7 0.00 0.01 0.01 68 1012.3
20260503170903 63 158 0.0 3.5 0.00 0.01 0.01 68 1012.3
20260503150903 67 0 0.0 0.0 0.00 0.01 0.01 61 1013.0
20260503130903 59 0 0.0 0.0 0.01 0.01 0.01 78 1015.0
20260503080903 62 0 0.0 0.0 0.00 0.00 0.00 64 1014.6
20260503072703 62 0 0.0 0.0 0.00 0.00 0.00 62 1014.3
20260503071803 60 0 0.0 0.0 0.00 0.00 0.00 65 1014.3
20260503070903 60 0 0.0 0.0 0.00 0.00 0.00 64 1014.3
20260503054503 57 0 0.0 0.0 0.00 0.00 0.00 60 1014.3
20260503053603 58 0 0.0 0.0 0.00 0.00 0.00 58 1014.2
20260503052703 57 0 0.0 0.0 0.00 0.00 0.00 55 1014.1
20260503051803 56 0 0.0 0.0 0.00 0.00 0.00 58 1014.0
20260503050903 57 0 0.0 0.0 0.00 0.00 0.00 57 1014.0
20260503050003 57 0 0.0 0.0 0.00 0.00 0.00 56 1014.0
20260503045403 57 0 0.0 0.0 0.00 0.00 0.00 58 1014.1
20260503044503 57 0 0.0 0.0 0.00 0.00 0.00 55 1014.1
20260503043603 56 0 0.0 0.0 0.00 0.00 0.00 57 1014.1
20260503042703 56 0 0.0 0.0 0.00 0.00 0.00 57 1014.2
20260503041803 57 0 0.0 0.0 0.00 0.00 0.00 54 1014.2
20260503040903 57 0 0.0 0.0 0.00 0.00 0.00 53 1014.2
20260503040003 58 0 0.0 0.0 0.00 0.00 0.00 51 1014.2
20260503035403 58 0 0.0 0.0 0.00 0.00 0.00 50 1014.2
20260503034503 58 0 0.0 0.0 0.00 0.00 0.00 49 1014.3
20260503033603 58 0 0.0 0.0 0.00 0.00 0.00 49 1014.1
20260503032703 58 0 0.0 0.0 0.00 0.00 0.00 49 1014.3
20260503031803 58 0 0.0 0.0 0.00 0.00 0.00 50 1014.2
20260503030903 58 0 0.0 0.0 0.00 0.00 0.00 49 1014.3
20260503030003 58 0 0.0 0.0 0.00 0.00 0.00 48 1014.3
20260503025403 58 0 0.0 0.0 0.00 0.00 0.00 48 1014.2
20260503024503 58 0 0.0 0.0 0.00 0.00 0.00 48 1014.2
20260503023603 58 0 0.0 0.0 0.00 0.00 0.00 48 1014.4
20260503022703 58 0 0.0 0.0 0.00 0.00 0.00 47 1014.4
20260503021803 58 0 0.0 0.0 0.00 0.00 0.00 48 1014.3
20260503020903 58 0 0.0 0.0 0.00 0.00 0.00 48 1014.5
20260503020003 57 0 0.0 0.0 0.00 0.00 0.00 49 1014.5
20260503015403 57 0 0.0 0.0 0.00 0.00 0.00 50 1014.5
20260503014503 57 0 0.0 0.0 0.00 0.00 0.00 48 1014.5
20260503013603 58 0 0.0 0.0 0.00 0.00 0.00 47 1014.6
20260503012703 58 0 0.0 0.0 0.00 0.00 0.00 47 1014.7
20260503011803 58 0 0.0 0.0 0.00 0.00 0.00 46 1014.8
20260503010903 59 0 0.0 0.0 0.00 0.00 0.00 44 1014.9
20260503010003 59 0 0.0 0.0 0.00 0.00 0.00 44 1014.9
20260503005403 59 0 0.0 0.0 0.00 0.00 0.00 44 1014.9
20260503004503 60 0 0.0 0.0 0.00 0.00 0.00 44 1015.1
20260503003603 60 0 0.0 0.0 0.00 0.00 0.00 44 1015.3
20260503002703 60 0 0.0 0.0 0.00 0.00 0.00 44 1015.3
20260503001803 60 0 0.0 0.0 0.00 0.00 0.00 43 1015.4
20260503000903 60 0 0.0 0.0 0.00 0.00 0.00 43 1015.6
20260503000003 60 0 0.0 0.0 0.00 0.00 0.00 44 1015.5
20260502235403 61 0 0.0 0.0 0.00 0.00 0.00 43 1015.4
20260502234503 61 0 0.0 0.0 0.00 0.00 0.00 43 1015.5
20260502233603 61 0 0.0 0.0 0.00 0.00 0.00 44 1015.6
20260502232703 60 0 0.0 0.0 0.00 0.00 0.00 46 1015.7
20260502231803 60 0 0.0 0.0 0.00 0.00 0.00 47 1015.6
20260502230903 60 0 0.0 0.0 0.00 0.00 0.00 48 1015.9
20260502230003 60 0 0.0 0.0 0.00 0.00 0.00 49 1015.9
20260502225403 59 0 0.0 0.0 0.00 0.00 0.00 51 1015.6
20260502224503 60 0 0.0 0.0 0.00 0.00 0.00 51 1015.7
20260502223603 60 0 0.0 0.0 0.00 0.00 0.00 52 1015.8
20260502222703 60 0 0.0 0.0 0.00 0.00 0.00 53 1015.7
20260502221803 60 0 0.0 0.0 0.00 0.00 0.00 52 1015.8
20260502220903 60 0 0.0 0.0 0.00 0.00 0.00 53 1015.8
20260502220003 60 0 0.0 0.0 0.00 0.00 0.00 51 1015.9
20260502215403 60 0 0.0 0.0 0.00 0.00 0.00 52 1015.9
20260502214503 59 0 0.0 0.0 0.00 0.00 0.00 53 1015.9
20260502213603 58 0 0.0 0.0 0.00 0.00 0.00 54 1016.0
20260502212703 57 0 0.0 0.0 0.00 0.00 0.00 55 1016.0
20260502211803 56 0 0.0 0.0 0.00 0.00 0.00 57 1015.9
20260502210903 56 0 0.0 0.0 0.00 0.00 0.00 55 1016.1
20260502210003 57 0 0.0 0.0 0.00 0.00 0.00 54 1016.3
20260502205403 57 0 0.0 0.0 0.00 0.00 0.00 54 1016.2
20260502204503 57 0 0.0 0.0 0.00 0.00 0.00 55 1016.3
20260502203603 57 0 0.0 0.0 0.00 0.00 0.00 55 1016.3
20260502202703 59 0 0.0 0.0 0.00 0.00 0.00 52 1016.3
20260502201803 60 0 0.0 0.0 0.00 0.00 0.00 50 1016.3
20260502200903 62 0 0.0 0.0 0.00 0.00 0.00 45 1016.3
20260502200003 62 0 0.0 0.0 0.00 0.00 0.00 44 1016.2
20260502195403 62 0 0.0 0.0 0.00 0.00 0.00 44 1016.2
20260502194503 62 0 0.0 0.0 0.00 0.00 0.00 44 1016.1
20260502193603 63 0 0.0 0.0 0.00 0.00 0.00 45 1016.1
20260502192703 64 0 0.0 0.0 0.00 0.00 0.00 42 1015.9
20260502191803 64 0 0.0 0.0 0.00 0.00 0.00 44 1015.9
20260502190903 64 0 0.0 0.0 0.00 0.00 0.00 44 1015.8
20260502190003 64 0 0.0 0.0 0.00 0.00 0.00 42 1015.9
20260502185403 65 0 0.0 0.0 0.00 0.00 0.00 44 1015.7